Regional Weather Roundup
Issued by NWS

Home | Current Version | Previous Version | Text Only | Print | Product List | Glossary Off
Versions: 1 2 3 4 5 6 7 8 9 10 11 12 13 14 15 16 17 18 19 20 21 22 23 24 25 26 27 28 29 30 31 32 33 34 35 36 37 38 39 40 41 42 43 44 45 46 47 48 49 50

000
ASUS45 KPSR 290310
RWRAZ

ARIZONA HOURLY REGIONAL WEATHER ROUNDUP
NATIONAL WEATHER SERVICE PHOENIX AZ
800 PM MST THU MAY 28 2015

NOTE: FAIR INDICATES FEW OR NO CLOUDS BELOW 12,000 FEET WITH NO
SIGNIFICANT WEATHER AND/OR OBSTRUCTIONS TO VISIBILITY.

AZZ001>003-036-290400-
NORTHWEST ARIZONA

CITY           SKY/WX    TMP DP  RH WIND       PRES   REMARKS
BULLHEAD CITY  CLOUDY    95  25   8 S7        29.77S
KINGMAN        CLOUDY    78  19  11 SW8       29.97R
$$

AZZ004>008-015-016-018-290400-
NORTH CENTRAL ARIZONA

CITY           SKY/WX    TMP DP  RH WIND       PRES   REMARKS
GRAND CANYON   CLEAR     57  36  45 CALM      30.17R
WILLIAMS       CLEAR     64  16  15 SW9G16    30.25R
PRESCOTT       PTCLDY    70  26  19 SW9       30.08S
FLAGSTAFF      CLEAR     59  22  24 SW5       30.21R
PAYSON         PTCLDY    72  25  17 SW5       30.10S
PAGE           PTCLDY    75  39  27 NW3       30.02R
$$

AZZ009>014-017-290400-
NORTHEAST ARIZONA

CITY           SKY/WX    TMP DP  RH WIND       PRES   REMARKS
WINSLOW        CLEAR     72  18  13 SW9       30.04R
SAINT JOHNS    CLEAR     66  22  18 W6        30.08R
WINDOW ROCK    CLEAR     62  23  22 CALM      30.15R
SHOW LOW       CLEAR     63  19  19 SW8       30.16S
$$

AZZ023-290400-
GREATER PHOENIX AREA

CITY           SKY/WX    TMP DP  RH WIND       PRES   REMARKS
PHOENIX        PTCLDY    95  28   9 W9        29.81R
BUCKEYE          N/A     84  28  13 W5        29.83R
GLENDALE       PTCLDY    91  28  10 SW6       29.83R
LUKE AFB       PTCLDY    89  33  13 W5        29.81R
DEER VALLEY    PTCLDY    90  25   9 W8        29.84R
SCOTTSDALE     PTCLDY    91  27  10 CALM      29.85S
MESA-FALCON    PTCLDY    90  28  11 W6        29.84R
MESA-GATEWAY   PTCLDY    88  32  13 NW8       29.86R
CHANDLER       PTCLDY    91  30  11 NW10      29.83R
$$

AZZ027-028-290400-
SOUTHWEST MARICOPA COUNTY AND PINAL COUNTY

CITY           SKY/WX    TMP DP  RH WIND       PRES   REMARKS
CASA GRANDE    CLEAR     90  36  14 NW6       29.84R
GILA BEND      MOCLDY    89  31  12 W7        29.81R
$$

AZZ503-504-507>509-290400-
SOUTHEAST ARIZONA

CITY           SKY/WX    TMP DP  RH WIND       PRES   REMARKS
TUCSON         CLEAR     88  26  10 N8        29.92R
DAVIS-MONTHAN  CLEAR     86  26  11 NW7       29.90R
RYAN FIELD       N/A     90  30  12 NW6       29.90R
NOGALES        CLEAR     76  26  15 S3        30.01R
SIERRA VISTA   CLEAR     77  23  13 W14       30.06R
DOUGLAS        CLEAR     76  24  14 SW8       29.99R
SAFFORD        PTCLDY    85  25  11 NW15      29.89R
$$

AZZ020-021-025-026-031-290400-
SOUTHWEST ARIZONA

CITY           SKY/WX    TMP DP  RH WIND       PRES   REMARKS
YUMA           PTCLDY    90  37  15 S6        29.79R
$$

CAZ031-033-041-043-047-048-061-290400-
SOUTHERN CALIFORNIA

CITY           SKY/WX    TMP DP  RH WIND       PRES   REMARKS
DOWNTOWN L.A.  CLEAR     63  56  78 VRB3      29.92R
L.A. AIRPORT   PTCLDY    60  56  86 W9        29.93R
SAN DIEGO      MOCLDY    63  54  72 NW6       29.96S
BURBANK        CLEAR     68  55  63 S8        29.91R
ONTARIO        PTCLDY    72  55  55 SW9       29.91R
RIVERSIDE      CLEAR     73  55  53 W8        29.91R
PALM SPRINGS   CLEAR     94  42  16 SE12      29.79R
EL CENTRO NAS  PTCLDY    87  43  21 E9        29.77R
IMPERIAL       CLEAR     94  39  14 SE8       29.75R
BLYTHE         PTCLDY    91  33  12 S10       29.78R
NEEDLES        CLOUDY    96  24   7 SW9       29.79R
$$

NVZ020-UTZ003-290400-
SOUTHERN NEVADA-UTAH

CITY           SKY/WX    TMP DP  RH WIND       PRES   REMARKS
LAS VEGAS      CLOUDY    91  26   9 S15G21    29.80R
SALT LAKE CITY PTCLDY    64  45  49 N8        30.10R
$$

NMZ009-TXZ055-290400-
NEW MEXICO-WEST TEXAS

CITY           SKY/WX    TMP DP  RH WIND       PRES   REMARKS
ALBUQUERQUE    PTCLDY    76  22  13 NW9       30.01R
EL PASO        PTCLDY    88  14   6 W10       29.92R
$$


........................KEY........................
SKY/WX - SKY CONDITION/WEATHER
TMP    - TEMPERATURE IN FAHRENHEIT
DP     - DEW POINT IN FAHRENHEIT
RH     - RELATIVE HUMIDITY IN PERCENT
WIND   - DIRECTION AND SPEED IN MILES PER HOUR (MPH)
VRB    - VARIABLE WIND DIRECTION
PRES   - MEAN SEA LEVEL PRESSURE IN INCHES OF MERCURY
         F - FALLING PRESSURE   R - RISING PRESSURE
         S - STEADY PRESSURE
VSB    - VISIBILITY IN MILES
HX     - HEAT INDEX IN FAHRENHEIT
WCI    - WIND CHILL INDEX IN FAHRENHEIT
TC     - TEMPERATURE IN CELSIUS WHICH IS ALSO KNOWN AS
         TEMPERATURE IN CENTIGRADE
AFB    - AIR FORCE BASE
         LUKE AFB IS LUKE AIR FORCE BASE
         DAVIS-MONTHAN IS DAVIS-MONTHAN AIR FORCE BASE
NAS    - NAVAL AIR STATION
         EL CENTRO NAS IS EL CENTRO NAVAL AIR STATION
N/A    - NOT AVAILABLE




USA.gov is the U.S. government's official web portal to all federal, state and local government web resources and services.